Weather History for Sturgeon Bay, WI

Change the Weather History Date:

Monday, February 18, 2013

  Actual Average Record
Temperature  
Mean Temperature 30 °F -  
Max Temperature 37 °F 31 °F 46 °F (1997)
Min Temperature 24 °F 15 °F -24 °F (1920)
Degree Days  
Heating Degree Days 34    
Moisture  
Dew Point 28 °F    
Average Humidity 81    
Maximum Humidity 100    
Minimum Humidity 64    
Precipitation  
Precipitation 0.05 in - - ()
Sea Level Pressure  
Sea Level Pressure 29.62 in    
Wind  
Wind Speed 14 mph (South)    
Max Wind Speed 24 mph    
Max Gust Speed 33 mph    
Visibility 8 miles    
Events      
Averages and records for this station are not official NWS values.
T = Trace of Precipitation, MM = Missing Value Source: NWS Daily Summary

Daily Weather History Graph

Daily Weather History Graph

Search for Another Location

Airport:

Trip Planner

Search our weather history database for the weather conditions in past years. The results will help you decide how hot, cold, wet, or windy it might be!

Date:

Astronomy

Feb. 18, 2013 Rise Set
Actual Time 6:45 AM CST 5:22 PM CST
Civil Twilight 6:15 AM CST 5:52 PM CST
Nautical Twilight 5:41 AM CST 6:26 PM CST
Astronomical Twilight 5:07 AM CST 7:00 PM CST
Moon 11:00 AM CST (2/18) 1:31 AM CST (2/18)
Length of Visible Light 11h 37m
Length of Day
10h 37m
First Quarter, 58% of the Moon is Illuminated
Feb 18
First Quarter
Feb 25
Full
Mar 4
Last Quarter
Mar 11
New
Mar 19
First Quarter

Hourly Weather History & Observations

Time (CST) Temp. Windchill Dew Point Humidity Pressure Visibility Wind Dir Wind Speed Gust Speed Precip Events Conditions
12:15 AM 24.8 °F 16.9 °F 15.8 °F 69% 29.97 in 10.0 mi South 6.9 mph - N/A   Scattered Clouds
12:35 AM 24.8 °F 16.9 °F 17.6 °F 74% 29.95 in 10.0 mi SSE 6.9 mph - N/A   Clear
12:55 AM 28.4 °F 17.0 °F 19.4 °F 69% 29.94 in 10.0 mi South 15.0 mph 20.7 mph N/A   Mostly Cloudy
1:15 AM 28.4 °F 18.0 °F 19.4 °F 69% 29.94 in 10.0 mi South 12.7 mph 21.9 mph N/A   Overcast
1:35 AM 30.2 °F 20.2 °F 19.4 °F 64% 29.93 in 10.0 mi South 12.7 mph 20.7 mph N/A   Overcast
1:55 AM 30.2 °F 18.9 °F 19.4 °F 64% 29.92 in 10.0 mi South 16.1 mph 21.9 mph N/A   Mostly Cloudy
2:15 AM 30.2 °F 18.5 °F 21.2 °F 69% 29.91 in 10.0 mi South 17.3 mph 21.9 mph N/A   Overcast
2:35 AM 30.2 °F 20.8 °F 21.2 °F 69% 29.90 in 10.0 mi South 11.5 mph 24.2 mph N/A   Overcast
2:55 AM 30.2 °F 19.3 °F 21.2 °F 69% 29.88 in 10.0 mi SSE 15.0 mph 21.9 mph N/A   Overcast
3:15 AM 30.2 °F 18.5 °F 23.0 °F 75% 29.85 in 10.0 mi SSE 17.3 mph 28.8 mph N/A   Overcast
3:35 AM 30.2 °F 17.8 °F 24.8 °F 80% 29.83 in 10.0 mi SSE 19.6 mph 28.8 mph N/A   Overcast
3:55 AM 32.0 °F 20.1 °F 24.8 °F 75% 29.81 in 10.0 mi SSE 19.6 mph 29.9 mph N/A   Overcast
4:15 AM 32.0 °F 20.5 °F 24.8 °F 75% 29.80 in 10.0 mi SSE 18.4 mph 29.9 mph N/A   Overcast
4:35 AM 32.0 °F 19.8 °F 24.8 °F 75% 29.79 in 10.0 mi SSE 20.7 mph 25.3 mph N/A   Scattered Clouds
4:55 AM 30.2 °F 17.1 °F 26.6 °F 86% 29.78 in 10.0 mi SSE 21.9 mph 26.5 mph N/A   Mostly Cloudy
5:15 AM 30.2 °F 18.9 °F 26.6 °F 86% 29.78 in 10.0 mi SSE 16.1 mph 21.9 mph N/A   Mostly Cloudy
5:35 AM 30.2 °F 18.5 °F 26.6 °F 86% 29.76 in 10.0 mi SSE 17.3 mph 24.2 mph N/A   Overcast
5:55 AM 30.2 °F 18.1 °F 26.6 °F 86% 29.76 in 10.0 mi SSE 18.4 mph 25.3 mph N/A   Overcast
6:15 AM 30.2 °F 17.4 °F 26.6 °F 86% 29.75 in 10.0 mi SSE 20.7 mph 27.6 mph N/A   Overcast
6:35 AM 30.2 °F 18.1 °F 26.6 °F 86% 29.74 in 10.0 mi SSE 18.4 mph 25.3 mph N/A   Overcast
6:55 AM 30.2 °F 18.9 °F 26.6 °F 86% 29.73 in 10.0 mi SSE 16.1 mph 24.2 mph N/A   Overcast
7:15 AM 30.2 °F 19.3 °F 26.6 °F 86% 29.73 in 10.0 mi SSE 15.0 mph 23.0 mph N/A   Overcast
7:35 AM 32.0 °F 21.2 °F 26.6 °F 80% 29.73 in 10.0 mi SSE 16.1 mph 21.9 mph N/A   Overcast
7:55 AM 32.0 °F 20.8 °F 28.4 °F 87% 29.72 in 10.0 mi South 17.3 mph 21.9 mph N/A   Mostly Cloudy
8:15 AM 33.8 °F 22.5 °F 26.6 °F 75% 29.70 in 10.0 mi South 19.6 mph 25.3 mph N/A   Scattered Clouds
8:35 AM 33.8 °F 23.2 °F 26.6 °F 75% 29.69 in 10.0 mi South 17.3 mph 27.6 mph N/A   Clear
8:55 AM 35.6 °F 24.8 °F 28.4 °F 75% 29.69 in 10.0 mi South 19.6 mph 26.5 mph N/A   Clear
9:15 AM 35.6 °F 24.2 °F 28.4 °F 75% 29.67 in 10.0 mi South 21.9 mph 28.8 mph N/A   Clear
9:35 AM 35.6 °F 24.2 °F 28.4 °F 75% 29.67 in 10.0 mi South 21.9 mph 27.6 mph N/A   Partly Cloudy
9:55 AM 35.6 °F 25.5 °F 28.4 °F 75% 29.67 in 10.0 mi South 17.3 mph 26.5 mph N/A   Scattered Clouds
10:15 AM 35.6 °F 24.5 °F 28.4 °F 75% 29.66 in 10.0 mi South 20.7 mph 32.2 mph N/A   Partly Cloudy
10:35 AM 37.4 °F 26.9 °F 28.4 °F 70% 29.65 in 10.0 mi South 20.7 mph 28.8 mph N/A   Clear
10:55 AM 37.4 °F 27.8 °F 30.2 °F 75% 29.64 in 10.0 mi South 17.3 mph 26.5 mph N/A   Clear
11:15 AM 37.4 °F 26.6 °F 28.4 °F 70% 29.63 in 10.0 mi South 21.9 mph 27.6 mph N/A   Clear
11:35 AM 37.4 °F 26.4 °F 28.4 °F 70% 29.61 in 10.0 mi South 23.0 mph 29.9 mph N/A   Clear
11:55 AM 37.4 °F 26.1 °F 28.4 °F 70% 29.61 in 10.0 mi South 24.2 mph 33.4 mph N/A   Clear
12:15 PM 37.4 °F 26.9 °F 28.4 °F 70% 29.60 in 10.0 mi South 20.7 mph 29.9 mph N/A   Clear
12:35 PM 37.4 °F 27.5 °F 28.4 °F 70% 29.58 in 10.0 mi South 18.4 mph 28.8 mph N/A   Partly Cloudy
12:55 PM 37.4 °F 26.6 °F 28.4 °F 70% 29.57 in 10.0 mi South 21.9 mph 28.8 mph N/A   Partly Cloudy
1:15 PM 37.4 °F 26.9 °F 28.4 °F 70% 29.57 in 10.0 mi South 20.7 mph 29.9 mph N/A   Partly Cloudy
1:35 PM 37.4 °F 26.6 °F 30.2 °F 75% 29.56 in 10.0 mi South 21.9 mph 28.8 mph N/A   Clear
1:55 PM 37.4 °F 26.9 °F 30.2 °F 75% 29.55 in 10.0 mi South 20.7 mph 25.3 mph N/A   Scattered Clouds
2:15 PM 37.4 °F 28.5 °F 30.2 °F 75% 29.55 in 10.0 mi South 15.0 mph 23.0 mph N/A   Partly Cloudy
2:35 PM 37.4 °F 28.5 °F 30.2 °F 75% 29.55 in 10.0 mi South 15.0 mph - N/A   Clear
2:55 PM 37.4 °F 27.5 °F 30.2 °F 75% 29.54 in 10.0 mi South 18.4 mph 26.5 mph N/A   Clear
3:15 PM 37.4 °F 28.2 °F 32.0 °F 81% 29.53 in 10.0 mi South 16.1 mph 26.5 mph N/A   Clear
3:35 PM 37.4 °F 27.8 °F 32.0 °F 81% 29.53 in 10.0 mi South 17.3 mph 21.9 mph N/A   Mostly Cloudy
3:55 PM 37.4 °F 28.5 °F 32.0 °F 81% 29.53 in 10.0 mi South 15.0 mph 21.9 mph N/A   Mostly Cloudy
4:15 PM 37.4 °F 29.3 °F 33.8 °F 87% 29.51 in 10.0 mi South 12.7 mph 20.7 mph N/A   Overcast
4:35 PM 37.4 °F 28.9 °F 33.8 °F 87% 29.50 in 10.0 mi South 13.8 mph - N/A   Overcast
4:55 PM 37.4 °F 29.3 °F 33.8 °F 87% 29.47 in 10.0 mi SSE 12.7 mph 20.7 mph N/A   Overcast
5:15 PM 37.4 °F 29.8 °F 33.8 °F 87% 29.50 in 10.0 mi South 11.5 mph 19.6 mph N/A   Overcast
5:35 PM 37.4 °F 30.3 °F 33.8 °F 87% 29.50 in 10.0 mi South 10.4 mph - N/A   Overcast
5:55 PM 37.4 °F 30.8 °F 33.8 °F 87% 29.49 in 10.0 mi South 9.2 mph - N/A   Overcast
6:15 PM 37.4 °F 30.8 °F 33.8 °F 87% 29.50 in 10.0 mi SW 9.2 mph - N/A   Overcast
6:35 PM 37.4 °F 33.8 °F 33.8 °F 87% 29.49 in 10.0 mi WSW 4.6 mph - N/A   Overcast
6:55 PM 35.6 °F - 33.8 °F 93% 29.48 in 9.0 mi Calm Calm - N/A   Overcast
7:15 PM 35.6 °F - 33.8 °F 93% 29.47 in 6.0 mi Calm Calm - N/A   Overcast
7:35 PM 35.6 °F - 33.8 °F 93% 29.46 in 4.0 mi Calm Calm - N/A   Overcast
7:55 PM 35.6 °F - 33.8 °F 93% 29.45 in 2.5 mi Calm Calm - N/A   Overcast
8:15 PM 33.8 °F 29.6 °F 33.8 °F 100% 29.44 in 1.5 mi North 4.6 mph - N/A   Overcast
8:35 PM 33.8 °F 30.8 °F 33.8 °F 100% 29.43 in 3.0 mi North 3.5 mph - 0.01 in   Overcast
8:55 PM 33.8 °F - 33.8 °F 100% 29.42 in 3.0 mi North - - 0.02 in   Overcast
9:15 PM 33.8 °F 28.6 °F 32.0 °F 93% 29.41 in 3.0 mi North 5.8 mph - 0.01 in   Overcast
9:35 PM 33.8 °F 27.7 °F 30.2 °F 87% 29.40 in 1.2 mi North 6.9 mph - 0.02 in   Overcast
9:55 PM 33.8 °F 27.0 °F 30.2 °F 87% 29.39 in 0.8 mi North 8.1 mph - 0.02 in   Overcast
10:15 PM 32.0 °F 24.2 °F 30.2 °F 93% 29.38 in 0.5 mi North 9.2 mph - N/A   Overcast
10:35 PM 32.0 °F 24.2 °F 30.2 °F 93% 29.36 in 0.8 mi North 9.2 mph - N/A   Overcast
10:55 PM 32.0 °F 24.2 °F 30.2 °F 93% 29.36 in 1.2 mi North 9.2 mph - N/A   Overcast
11:15 PM 32.0 °F 24.2 °F 30.2 °F 93% 29.35 in 1.5 mi NNW 9.2 mph - 0.01 in   Overcast
11:35 PM 32.0 °F 24.2 °F 30.2 °F 93% 29.35 in 1.2 mi NNW 9.2 mph - 0.01 in   Overcast
11:55 PM 32.0 °F 24.2 °F 30.2 °F 93% 29.35 in 1.5 mi NW 9.2 mph - 0.01 in   Overcast